1500008400.42,46711,19.25,73862.8,8.25,-31.85,-31.85,0,*77
1500008401.61,46712,19.25,73862.0,8.23,-32.23,-32.23,0,*72
1500008402.86,46713,19.25,73858.5,8.25,-31.85,-31.79,0,*76
1500008404.1,46714,19.25,73860.5,8.25,-31.51,-31.33,0,*76
1500008405.33,46715,19.25,73860.5,8.27,-31.23,-31.29,0,*7B
1500008406.53,46716,19.25,73858.3,8.27,-32.51,-32.51,0,*72
1500008407.81,46717,19.25,73858.0,8.25,-32.19,-32.07,0,*7E
1500008409.07,46718,19.25,73856.3,8.27,-30.89,-30.77,0,*7D
1500008410.29,46719,19.25,73858.3,8.27,-31.29,-31.23,0,*77
1500008411.51,46720,19.19,73856.3,8.27,-31.05,-30.89,0,*72
1500008412.71,46721,19.25,73858.8,8.27,-32.13,-32.13,0,*76
1500008413.95,46722,19.25,73860.3,8.27,-31.61,-31.57,0,*70
1500008415.2,46723,19.25,73856.5,8.29,-31.61,-31.79,0,*73
1500008416.43,46724,19.25,73862.3,8.31,-31.01,-30.89,0,*75
1500008417.67,46725,19.19,73858.5,8.31,-31.57,-31.51,0,*73
1500008418.96,46726,19.25,73860.0,8.29,-32.79,-32.79,0,*7F
1500008420.21,46727,19.25,73860.3,8.29,-33.09,-33.21,0,*74
1500008421.48,46728,19.25,73860.0,8.29,-31.61,-31.57,0,*74
1500008422.73,46729,19.25,73862.8,8.29,-31.79,-31.85,0,*73
1500008423.98,46730,19.25,73862.0,8.31,-32.07,-32.07,0,*71
1500008425.25,46731,19.19,73858.5,8.29,-31.61,-31.57,0,*7C
1500008426.45,46732,19.25,73860.5,8.31,-31.17,-31.05,0,*70
1500008427.67,46733,19.25,73862.3,8.31,-31.57,-31.67,0,*71
1500008428.86,46734,19.25,73864.3,8.31,-31.05,-31.01,0,*71
1500008430.13,46735,19.25,73864.3,8.29,-31.57,-31.57,0,*7D
1500008431.32,46736,19.25,73862.5,8.31,-31.05,-31.01,0,*73
1500008432.58,46737,19.25,73860.3,8.29,-32.01,-32.19,0,*76
1500008433.84,46738,19.25,73856.3,8.31,-32.75,-32.75,0,*79
1500008435.08,46739,19.25,73862.0,8.31,-32.45,-32.45,0,*78
1500008436.33,46740,19.19,73856.5,8.29,-32.01,-31.85,0,*70
1500008437.56,46741,19.25,73862.0,8.31,-31.79,-31.91,0,*71
1500008438.78,46742,19.25,73860.8,8.31,-32.07,-32.23,0,*72
1500008439.98,46743,19.25,73860.3,8.31,-32.39,-32.39,0,*75
1500008441.25,46744,19.25,73858.8,8.29,-31.57,-31.57,0,*7B
1500008442.47,46745,19.25,73860.8,8.31,-31.01,-30.89,0,*72
1500008443.7,46746,19.25,73860.0,8.31,-30.67,-30.73,0,*75
1500008444.98,46747,19.25,73864.0,8.33,-30.73,-30.73,0,*73
1500008446.25,46748,19.25,73864.0,8.33,-32.63,-32.63,0,*7C
1500008447.47,46749,19.25,73860.5,8.33,-33.15,-33.03,0,*7A
1500008448.69,46750,19.25,73856.5,8.33,-34.13,-34.41,0,*72
1500008449.93,46751,19.25,73858.0,8.29,-34.13,-34.19,0,*75
1500008451.13,46752,19.25,73860.3,8.31,-33.03,-33.03,0,*75
1500008452.38,46753,19.25,73856.0,8.29,-31.39,-31.29,0,*7C
1500008453.63,46754,19.25,73854.3,8.29,-31.23,-31.05,0,*7E
1500008454.86,46755,19.25,73854.3,8.29,-32.01,-32.01,0,*7B
1500008456.09,46756,19.25,73856.0,8.31,-32.63,-32.51,0,*70
1500008457.34,46757,19.19,73852.0,8.29,-32.63,-32.51,0,*78
1500008458.59,46758,19.25,73864.0,8.31,-31.95,-31.73,0,*77
1500008459.84,46759,19.25,73860.8,8.29,-31.95,-32.13,0,*7A
1500008461.1,46760,19.25,73866.3,8.29,-32.69,-32.79,0,*7C
1500008462.33,46761,19.25,73864.0,8.29,-32.51,-32.51,0,*7C
1500008463.58,46762,19.25,73864.3,8.29,-33.09,-33.21,0,*75
1500008464.8,46763,19.25,73862.3,8.27,-33.03,-33.09,0,*7A
1500008466.05,46764,19.25,73864.5,8.27,-31.95,-31.85,0,*76
1500008467.27,46765,19.25,73862.0,8.27,-31.73,-31.79,0,*7C
1500008468.5,46766,19.25,73860.5,8.27,-31.57,-31.45,0,*76
1500008469.7,46767,19.25,73862.0,8.27,-31.45,-31.45,0,*74
1500008470.95,46768,19.25,73860.0,8.27,-31.61,-31.57,0,*7E
1500008472.22,46769,19.25,73862.3,8.29,-31.57,-31.39,0,*7C
1500008473.47,46770,19.25,73856.8,8.29,-31.45,-31.57,0,*7F
1500008474.73,46771,19.25,73858.5,8.29,-31.23,-31.01,0,*7D
1500008476.01,46772,19.25,73858.0,8.29,-31.11,-30.95,0,*73
1500008477.2,46773,19.25,73860.8,8.31,-31.05,-31.01,0,*72
1500008478.39,46774,19.25,73858.3,8.31,-31.17,-31.17,0,*71
1500008479.62,46775,19.25,73854.3,8.31,-32.57,-32.45,0,*73
1500008480.85,46776,19.25,73852.8,8.31,-32.29,-32.29,0,*73
1500008482.1,46777,19.25,73850.0,8.31,-31.95,-31.91,0,*76
1500008483.32,46778,19.25,73852.5,8.33,-31.17,-31.05,0,*7C
1500008484.58,46779,19.25,73860.3,8.31,-30.89,-30.73,0,*79
1500008485.83,46780,19.25,73866.5,8.33,-31.01,-30.89,0,*79
1500008487.1,46781,19.25,73866.8,8.33,-31.95,-31.91,0,*7D
1500008488.36,46782,19.25,73864.0,8.33,-32.57,-32.75,0,*7A
1500008489.58,46783,19.25,73858.0,8.33,-32.39,-32.39,0,*7B
1500008490.8,46784,19.25,73854.3,8.31,-32.57,-32.63,0,*79
1500008492.02,46785,19.25,73856.0,8.31,-31.91,-31.79,0,*79
1500008493.21,46786,19.19,73854.5,8.31,-32.57,-32.57,0,*7C
1500008494.46,46787,19.25,73858.8,8.31,-32.79,-32.63,0,*76
1500008495.68,46788,19.25,73860.3,8.31,-32.19,-32.13,0,*78
1500008496.96,46789,19.25,73856.5,8.29,-32.19,-32.19,0,*7A
1500008498.21,46790,19.25,73860.8,8.31,-32.07,-32.07,0,*7B
1500008499.4,46791,19.25,73862.8,8.27,-32.13,-32.13,0,*7D
1500008500.63,46792,19.25,73864.0,8.27,-32.45,-32.51,0,*7B
1500008501.9,46793,19.25,73862.3,8.25,-33.77,-33.77,0,*7D
1500008503.12,46794,19.25,73860.0,8.27,-33.09,-32.91,0,*78
1500008504.38,46795,19.25,73862.0,8.25,-32.69,-32.75,0,*76
1500008505.6,46796,19.25,73862.8,8.25,-32.91,-32.91,0,*78
1500008506.82,46797,19.25,73862.3,8.23,-32.29,-32.39,0,*7E
1500008508.1,46798,19.25,73860.3,8.25,-31.85,-32.07,0,*7F
1500008509.32,46799,19.25,73858.5,8.25,-32.35,-32.39,0,*7B
1500008510.57,46800,19.25,73860.0,8.23,-32.75,-32.79,0,*72
1500008511.79,46801,19.25,73860.5,8.23,-32.91,-32.79,0,*79
1500008513.01,46802,19.25,73856.5,8.23,-32.07,-32.13,0,*79
1500008514.26,46803,19.25,73856.5,8.21,-31.33,-31.23,0,*7E
1500008515.47,46804,19.25,73858.8,8.23,-30.83,-30.67,0,*70
1500008516.66,46805,19.25,73858.0,8.23,-31.17,-31.01,0,*7C
1500008517.93,46806,19.25,73854.0,8.25,-30.95,-30.95,0,*7E
1500008519.2,46807,19.25,73856.3,8.25,-30.95,-30.95,0,*7F
1500008520.45,46808,19.25,73860.5,8.27,-31.61,-31.61,0,*72
1500008521.65,46809,19.25,73862.5,8.27,-32.13,-32.13,0,*73
1500008522.87,46810,19.25,73860.0,8.27,-32.01,-31.95,0,*75
1500008524.13,46811,19.25,73860.0,8.27,-31.11,-30.89,0,*7A
1500008525.35,46812,19.25,73858.5,8.27,-31.05,-30.95,0,*71
1500008526.6,46813,19.25,73862.3,8.27,-31.95,-32.19,0,*7F
1500008527.83,46814,19.25,73862.3,8.27,-31.61,-31.45,0,*79
1500008529.03,46815,19.25,73860.3,8.27,-31.45,-31.45,0,*7E
1500008530.28,46816,19.25,73856.0,8.27,-31.57,-31.61,0,*78
1500008531.53,46817,19.25,73860.8,8.27,-34.01,-33.89,0,*7B
1500008532.78,46818,19.25,73862.8,8.25,-33.09,-33.15,0,*7C
1500008534.0,46819,19.25,73858.8,8.25,-31.79,-31.67,0,*7F
1500008535.25,46820,19.25,73860.8,8.25,-31.79,-31.85,0,*79
1500008536.44,46821,19.25,73866.0,8.23,-32.23,-32.23,0,*7D
1500008537.68,46822,19.25,73856.0,8.21,-30.89,-31.01,0,*7D
1500008538.93,46823,19.25,73858.8,8.23,-31.57,-31.57,0,*7F
1500008540.14,46824,19.25,73866.5,8.25,-32.23,-32.23,0,*7E
1500008541.42,46825,19.25,73864.3,8.25,-33.27,-33.27,0,*7F
1500008542.66,46826,19.25,73864.0,8.23,-32.45,-32.45,0,*7A
1500008543.94,46827,19.25,73860.5,8.21,-31.73,-31.73,0,*79
1500008545.18,46828,19.25,73862.8,8.23,-31.57,-31.57,0,*74
1500008546.4,46829,19.25,73866.3,8.23,-31.33,-31.23,0,*74
1500008547.65,46830,19.25,73862.8,8.23,-31.39,-31.39,0,*7D
1500008548.9,46831,19.25,73860.8,8.21,-32.91,-32.75,0,*74
1500008550.17,46832,19.25,73860.0,8.21,-31.85,-31.91,0,*78
1500008551.45,46833,19.25,73866.5,8.21,-31.95,-31.95,0,*7C
1500008552.69,46834,19.25,73862.5,8.21,-31.67,-31.57,0,*78
1500008553.91,46835,19.25,73864.0,8.21,-31.67,-31.67,0,*7A
1500008555.15,46836,19.25,73866.0,8.23,-30.61,-30.51,0,*78
1500008556.37,46837,19.25,73866.0,8.23,-30.51,-30.33,0,*7E
1500008557.62,46838,19.25,73868.3,8.23,-31.57,-31.95,0,*7B
1500008558.81,46839,19.25,73860.0,8.23,-32.23,-32.23,0,*74
1500008560.05,46840,19.25,73862.5,8.23,-31.73,-31.73,0,*7A
1500008561.31,46841,19.25,73860.5,8.23,-30.89,-30.89,0,*7B
1500008562.5,46842,19.25,73862.3,8.23,-31.17,-31.17,0,*78
1500008563.75,46843,19.25,73862.3,8.23,-31.85,-31.91,0,*7C
1500008565.0,46844,19.25,73858.0,8.23,-31.57,-31.51,0,*78
1500008566.27,46845,19.25,73860.5,8.21,-31.39,-31.39,0,*7D
1500008567.46,46846,19.25,73860.5,8.23,-31.05,-31.01,0,*78
1500008568.69,46847,19.25,73862.5,8.23,-31.05,-30.89,0,*78
1500008569.92,46848,19.19,73862.5,8.25,-30.39,-30.27,0,*7B
1500008571.14,46849,19.25,73866.3,8.27,-30.55,-30.33,0,*77
1500008572.38,46850,19.25,73866.0,8.27,-30.61,-30.39,0,*72
1500008573.6,46851,19.25,73860.8,8.27,-31.57,-31.79,0,*72
1500008574.83,46852,19.25,73864.8,8.25,-32.57,-32.51,0,*79
1500008576.09,46853,19.25,73860.3,8.27,-31.23,-31.11,0,*7D
1500008577.3,46854,19.25,73862.3,8.25,-31.01,-31.01,0,*79
1500008578.5,46855,19.25,73864.3,8.27,-31.29,-31.29,0,*7A
1500008579.7,46856,19.25,73862.8,8.27,-31.29,-31.45,0,*73
1500008580.94,46857,19.25,73866.0,8.25,-30.83,-30.67,0,*70
1500008582.15,46858,19.25,73862.0,8.27,-30.55,-30.33,0,*77
1500008583.38,46859,19.25,73864.0,8.27,-30.23,-30.17,0,*71
1500008584.6,46860,19.25,73864.0,8.27,-30.23,-30.17,0,*7B
1500008585.84,46861,19.25,73868.0,8.27,-30.39,-30.39,0,*7D
1500008587.08,46862,19.25,73866.8,8.29,-31.45,-31.57,0,*73
1500008588.36,46863,19.25,73864.8,8.29,-30.73,-30.55,0,*75
1500008589.64,46864,19.25,73864.0,8.29,-30.89,-30.89,0,*76
1500008590.91,46865,19.25,73864.8,8.29,-31.57,-31.57,0,*77
1500008592.19,46866,19.25,73868.8,8.29,-31.85,-31.85,0,*74
1500008593.43,46867,19.25,73868.5,8.29,-31.05,-30.95,0,*7D
1500008594.68,46868,19.25,73864.3,8.31,-31.57,-31.57,0,*73
1500008595.95,46869,19.25,73870.0,8.29,-31.57,-31.57,0,*7B
1500008597.18,46870,19.25,73862.0,8.29,-31.45,-31.45,0,*73
1500008598.43,46871,19.25,73860.8,8.29,-31.39,-31.29,0,*73
1500008599.71,46872,19.19,73858.8,8.29,-30.73,-30.55,0,*75
1500008600.96,46873,19.25,73868.0,8.29,-31.29,-31.39,0,*71
1500008602.24,46874,19.25,73874.5,8.29,-31.11,-31.23,0,*76
1500008603.51,46875,19.25,73872.8,8.29,-31.73,-31.73,0,*76
1500008604.74,46876,19.25,73868.0,8.29,-33.03,-33.37,0,*72
1500008605.99,46877,19.25,73864.5,8.25,-33.77,-33.95,0,*74
1500008607.23,46878,19.25,73860.5,8.23,-32.45,-32.63,0,*75
1500008608.47,46879,19.25,73860.5,8.23,-32.29,-32.29,0,*70
1500008609.72,46880,19.25,73856.0,8.23,-32.63,-32.75,0,*71
1500008610.97,46881,19.25,73856.3,8.23,-31.23,-31.23,0,*77
1500008612.19,46882,19.25,73860.5,8.21,-31.05,-31.01,0,*72
1500008613.41,46883,19.25,73860.0,8.23,-32.07,-32.13,0,*70
1500008614.63,46884,19.25,73862.5,8.21,-32.13,-32.23,0,*73
1500008615.9,46885,19.19,73860.8,8.21,-31.39,-31.39,0,*71
1500008617.12,46886,19.25,73862.5,8.21,-31.33,-31.33,0,*72
1500008618.4,46887,19.19,73860.5,8.21,-31.23,-31.23,0,*73
1500008619.66,46888,19.25,73866.8,8.21,-30.83,-30.73,0,*73
1500008620.91,46889,19.19,73862.5,8.23,-30.73,-30.89,0,*7A
1500008622.14,46890,19.25,73864.8,8.23,-30.73,-30.67,0,*72
1500008623.39,46891,19.25,73864.8,8.23,-31.73,-31.85,0,*7F
1500008624.6,46892,19.25,73866.5,8.23,-31.51,-31.67,0,*70
1500008625.88,46893,19.25,73866.0,8.21,-31.23,-31.23,0,*76
1500008627.12,46894,19.25,73862.8,8.21,-30.45,-30.51,0,*74
1500008628.34,46895,19.25,73862.5,8.21,-31.01,-31.01,0,*70
1500008629.53,46896,19.25,73860.8,8.23,-31.05,-31.05,0,*71
1500008630.77,46897,19.25,73862.3,8.23,-31.51,-31.73,0,*70
1500008631.99,46898,19.25,73856.3,8.23,-30.51,-30.45,0,*7A
1500008633.19,46899,19.19,73858.5,8.23,-30.33,-30.33,0,*7E
1500008634.38,46900,19.19,73858.8,8.23,-30.11,-30.11,0,*7F
1500008635.62,46901,19.25,73866.0,8.25,-29.73,-29.61,0,*7B
1500008636.86,46902,19.19,73862.8,8.27,-31.39,-31.57,0,*71
1500008638.1,46903,19.25,73868.5,8.27,-30.61,-30.55,0,*7F
1500008639.37,46904,19.25,73864.8,8.25,-31.51,-31.51,0,*7D
1500008640.63,46905,19.25,73862.5,8.29,-31.23,-31.29,0,*7A
1500008641.87,46906,19.25,73862.5,8.25,-30.55,-30.45,0,*7E
1500008643.11,46907,19.25,73860.3,8.25,-30.23,-30.39,0,*75
1500008644.35,46908,19.25,73860.3,8.27,-30.39,-30.39,0,*73
1500008645.59,46909,19.19,73858.5,8.27,-30.17,-30.05,0,*71
1500008646.84,46910,19.25,73864.0,8.29,-30.17,-30.23,0,*73
1500008648.09,46911,19.25,73866.3,8.29,-29.83,-29.73,0,*7A
1500008649.36,46912,19.25,73866.5,8.29,-30.55,-30.55,0,*76
1500008650.56,46913,19.25,73864.3,8.27,-29.67,-29.57,0,*7A
1500008651.82,46914,19.25,73866.5,8.31,-29.51,-29.51,0,*79
1500008653.03,46915,19.25,73868.0,8.31,-30.45,-30.51,0,*7D
1500008654.29,46916,19.25,73866.8,8.31,-30.17,-30.17,0,*7B
1500008655.51,46917,19.25,73864.8,8.33,-30.27,-30.27,0,*78
1500008656.73,46918,19.25,73866.3,8.35,-30.11,-30.05,0,*74
1500008657.96,46919,19.25,73864.0,8.33,-29.79,-29.83,0,*73
1500008659.21,46920,19.25,73864.0,8.33,-29.61,-29.51,0,*7F
1500008660.44,46921,19.25,73864.8,8.35,-29.95,-29.89,0,*76
1500008661.66,46922,19.25,73866.8,8.39,-30.17,-30.33,0,*72
1500008662.89,46923,19.25,73870.0,8.35,-30.83,-30.95,0,*7E
1500008664.15,46924,19.25,73866.0,8.33,-30.67,-30.89,0,*78
1500008665.38,46925,19.25,73864.3,8.35,-29.95,-29.89,0,*72
1500008666.58,46926,19.25,73870.3,8.35,-29.61,-29.61,0,*7C
1500008667.78,46927,19.25,73868.5,8.35,-29.57,-29.57,0,*7D
1500008669.03,46928,19.25,73868.3,8.39,-29.29,-29.35,0,*73
1500008670.3,46929,19.25,73870.8,8.41,-29.29,-29.51,0,*7F
1500008671.58,46930,19.25,73864.8,8.41,-30.01,-30.17,0,*7F
1500008672.85,46931,19.25,73866.8,8.41,-29.73,-29.73,0,*79
1500008674.06,46932,19.25,73864.5,8.45,-29.57,-29.61,0,*7B
1500008675.29,46933,19.25,73868.8,8.47,-29.79,-29.95,0,*7F
1500008676.51,46934,19.25,73866.8,8.45,-29.23,-29.29,0,*72
1500008677.77,46935,19.25,73868.3,8.47,-29.79,-29.89,0,*74
1500008679.02,46936,19.25,73870.0,8.47,-29.95,-30.05,0,*79
1500008680.25,46937,19.25,73862.0,8.47,-30.23,-30.23,0,*79
1500008681.48,46938,19.25,73864.0,8.47,-29.95,-30.11,0,*72
1500008682.72,46939,19.25,73864.0,8.47,-30.05,-30.11,0,*72
1500008683.98,46940,19.25,73862.0,8.47,-31.11,-31.33,0,*79
1500008685.26,46941,19.25,73864.3,8.47,-30.77,-30.95,0,*74
1500008686.54,46942,19.25,73862.3,8.47,-31.91,-32.19,0,*78
1500008687.82,46943,19.25,73860.0,8.47,-31.57,-31.91,0,*70
1500008689.08,46944,19.25,73864.8,8.45,-31.85,-32.07,0,*76
1500008690.28,46945,19.25,73860.5,8.45,-31.45,-31.67,0,*7E
1500008691.56,46946,19.25,73862.8,8.41,-30.61,-30.89,0,*7F
1500008692.82,46947,19.25,73860.5,8.41,-30.23,-30.61,0,*7E
1500008694.05,46948,19.19,73860.3,8.45,-29.45,-29.73,0,*76
1500008695.27,46949,19.25,73866.5,8.41,-30.23,-30.45,0,*76
1500008696.52,46950,19.25,73864.5,8.41,-30.45,-30.61,0,*78
1500008697.77,46951,19.25,73862.0,8.41,-30.01,-30.23,0,*7F
1500008699.02,46952,19.25,73864.3,8.41,-31.45,-31.85,0,*70
1500008700.23,46953,19.25,73864.8,8.45,-30.27,-30.33,0,*7C
1500008701.51,46954,19.25,73864.8,8.41,-29.73,-29.89,0,*7F
1500008702.74,46955,19.25,73868.8,8.45,-29.23,-29.39,0,*74
1500008703.96,46956,19.25,73866.5,8.45,-29.01,-29.23,0,*7C
1500008705.19,46957,19.25,73866.3,8.47,-29.61,-29.95,0,*74
1500008706.47,46958,19.19,73864.8,8.47,-29.73,-30.05,0,*79
1500008707.7,46959,19.25,73864.5,8.49,-30.17,-30.45,0,*78
1500008708.93,46960,19.25,73870.3,8.49,-29.51,-29.57,0,*73
1500008710.18,46961,19.25,73868.3,8.49,-30.73,-30.95,0,*7C
1500008711.42,46962,19.25,73868.3,8.49,-30.27,-30.61,0,*75
1500008712.65,46963,19.19,73866.5,8.47,-29.57,-29.79,0,*74
1500008713.9,46964,19.25,73866.5,8.49,-30.55,-30.73,0,*75
1500008715.12,46965,19.25,73864.8,8.49,-30.05,-30.23,0,*74
1500008716.36,46966,19.25,73870.0,8.49,-30.27,-30.61,0,*71
1500008717.59,46967,19.25,73870.3,8.51,-30.67,-31.17,0,*7D
1500008718.81,46968,19.25,73870.5,8.49,-31.39,-31.67,0,*76
1500008720.08,46969,19.25,73868.5,8.51,-30.01,-30.39,0,*7E
1500008721.31,46970,19.25,73868.8,8.49,-29.67,-29.89,0,*74
1500008722.55,46971,19.19,73862.0,8.49,-29.35,-29.57,0,*71
1500008723.78,46972,19.25,73866.8,8.49,-29.57,-29.73,0,*70
1500008725.06,46973,19.25,73870.8,8.51,-29.51,-30.01,0,*73
1500008726.29,46974,19.25,73864.3,8.51,-29.67,-29.79,0,*76
1500008727.52,46975,19.25,73864.8,8.51,-29.95,-30.23,0,*7D
1500008728.77,46976,19.25,73866.0,8.49,-31.11,-31.61,0,*75
1500008730.03,46977,19.25,73862.3,8.51,-30.51,-30.83,0,*75
1500008731.25,46978,19.25,73862.8,8.49,-30.05,-30.27,0,*7C
1500008732.47,46979,19.25,73858.0,8.53,-30.55,-31.05,0,*72
1500008733.75,46980,19.25,73858.5,8.51,-30.17,-30.55,0,*74
1500008735.01,46981,19.19,73852.3,8.51,-29.35,-29.67,0,*74
1500008736.24,46982,19.19,73852.8,8.49,-29.39,-29.67,0,*72
1500008737.47,46983,19.19,73856.5,8.51,-29.61,-29.83,0,*7D
1500008738.7,46984,19.19,73862.5,8.53,-29.17,-29.45,0,*73
1500008739.93,46985,19.25,73862.3,8.53,-29.13,-29.45,0,*76
1500008741.18,46986,19.19,73862.5,8.55,-29.13,-29.45,0,*73
1500008742.41,46987,19.19,73860.0,8.57,-28.69,-29.01,0,*7C
1500008743.63,46988,19.25,73866.8,8.57,-29.13,-29.57,0,*7C
1500008744.89,46989,19.25,73862.3,8.57,-29.39,-29.73,0,*73
1500008746.09,46990,19.19,73862.5,8.57,-29.23,-29.61,0,*73
1500008747.32,46991,19.25,73866.5,8.57,-29.35,-29.61,0,*75
1500008748.58,46992,19.19,73862.5,8.59,-29.39,-29.83,0,*78
1500008749.81,46993,19.25,73866.5,8.59,-28.69,-28.97,0,*79
1500008751.06,46994,19.25,73868.3,8.59,-29.17,-29.57,0,*7B
1500008752.31,46995,19.19,73864.5,8.63,-29.67,-30.05,0,*7B
1500008753.55,46996,19.19,73860.8,8.63,-29.45,-29.83,0,*7E
1500008754.81,46997,19.25,73864.8,8.63,-29.61,-30.01,0,*7B
1500008756.04,46998,19.19,73862.0,8.65,-29.17,-29.45,0,*7B
1500008757.3,46999,19.19,73864.3,8.65,-29.01,-29.35,0,*7A
1500008758.52,47000,19.25,73868.8,8.65,-28.75,-28.97,0,*79
1500008759.77,47001,19.25,73870.8,8.65,-28.63,-29.01,0,*71
1500008761.03,47002,19.25,73868.0,8.67,-28.59,-28.85,0,*74
1500008762.28,47003,19.19,73866.3,8.67,-28.59,-29.07,0,*7E
1500008763.5,47004,19.25,73868.5,8.69,-28.75,-29.23,0,*7F
1500008764.72,47005,19.25,73868.0,8.69,-29.07,-29.39,0,*71
1500008765.97,47006,19.19,73868.0,8.71,-28.69,-29.01,0,*79
1500008767.25,47007,19.19,73864.8,8.71,-28.91,-29.39,0,*74
1500008768.53,47008,19.19,73868.0,8.71,-28.91,-29.35,0,*77
1500008769.76,47009,19.19,73866.0,8.71,-29.67,-30.11,0,*70
1500008771.0,47010,19.19,73866.3,8.73,-28.47,-29.01,0,*70
1500008772.24,47011,19.19,73866.8,8.73,-28.75,-29.17,0,*77
1500008773.47,47012,19.19,73864.8,8.73,-29.01,-29.45,0,*71
1500008774.69,47013,19.25,73868.5,8.73,-28.31,-28.63,0,*77
1500008775.94,47014,19.25,73868.5,8.77,-28.37,-28.79,0,*79
1500008777.17,47015,19.19,73868.5,8.77,-28.53,-28.97,0,*7A
1500008778.42,47016,19.19,73870.0,8.77,-29.73,-30.27,0,*78
1500008779.63,47017,19.25,73870.0,8.79,-29.67,-30.27,0,*72
1500008780.89,47018,19.19,73868.5,8.79,-30.05,-30.77,0,*74
1500008782.17,47019,19.19,73870.8,8.77,-29.29,-30.01,0,*7C
1500008783.44,47020,19.19,73866.8,8.77,-29.57,-30.17,0,*78
1500008784.67,47021,19.19,73866.0,8.77,-29.07,-29.57,0,*70
1500008785.91,47022,19.19,73866.8,8.77,-28.69,-29.13,0,*7A
1500008787.19,47023,19.19,73866.8,8.77,-29.13,-29.73,0,*71
1500008788.41,47024,19.25,73868.8,8.81,-27.89,-28.37,0,*73
1500008789.67,47025,19.19,73868.0,8.81,-28.05,-28.85,0,*70
1500008790.95,47026,19.19,73866.5,8.85,-29.29,-30.01,0,*7D
1500008792.2,47027,19.19,73866.3,8.85,-29.45,-30.05,0,*72
1500008793.43,47028,19.19,73868.5,8.85,-29.45,-30.23,0,*79
1500008794.64,47029,19.19,73870.3,8.79,-29.23,-29.67,0,*73
1500008795.84,47030,19.19,73866.5,8.79,-29.23,-29.79,0,*74
1500008797.11,47031,19.19,73866.0,8.85,-29.73,-30.05,0,*70
1500008798.39,47032,19.19,73866.8,8.81,-28.75,-29.35,0,*7B
1500008799.63,47033,19.19,73870.8,8.81,-28.63,-29.07,0,*7C
1500008800.89,47034,19.19,73864.8,8.85,-30.67,-31.39,0,*76
1500008802.13,47035,19.19,73864.0,8.81,-30.45,-31.11,0,*79
1500008803.36,47036,19.19,73866.5,8.79,-29.57,-30.39,0,*7D
1500008804.62,47037,19.19,73870.0,8.81,-29.17,-29.67,0,*7C
1500008805.85,47038,19.19,73868.8,8.79,-29.51,-30.23,0,*7E
1500008807.1,47039,19.19,73868.3,8.79,-30.39,-31.11,0,*79
1500008808.36,47040,19.25,73870.3,8.79,-29.89,-30.55,0,*75
1500008809.56,47041,19.19,73866.3,8.79,-29.23,-29.79,0,*72
1500008810.84,47042,19.19,73868.3,8.81,-29.39,-30.05,0,*7E
1500008812.06,47043,19.19,73870.5,8.81,-29.07,-29.57,0,*7D
1500008813.29,47044,19.19,73870.0,8.81,-29.07,-29.79,0,*76
1500008814.54,47045,19.19,73870.3,8.81,-29.57,-30.39,0,*7E
1500008815.8,47046,19.19,73870.0,8.81,-29.51,-30.27,0,*74
1500008817.07,47047,19.19,73864.5,8.81,-28.75,-29.39,0,*75
1500008818.33,47048,19.25,73866.3,8.81,-29.51,-30.27,0,*7A
1500008819.6,47049,19.19,73856.8,8.85,-28.59,-29.13,0,*79
1500008820.86,47050,19.19,73860.8,8.85,-28.47,-29.13,0,*7E
1500008822.06,47051,19.19,73866.3,8.87,-28.53,-29.23,0,*7B
1500008823.3,47052,19.19,73870.5,8.87,-28.47,-29.17,0,*7A
1500008824.55,47053,19.19,73868.0,8.87,-30.01,-30.89,0,*7F
1500008825.77,47054,19.19,73864.3,8.87,-29.79,-30.51,0,*7A
1500008827.01,47055,19.19,73866.3,8.87,-28.75,-29.39,0,*70
1500008828.23,47056,19.19,73866.3,8.87,-28.53,-29.13,0,*7F
1500008829.47,47057,19.19,73866.5,8.85,-28.97,-29.73,0,*72
1500008830.67,47058,19.19,73870.5,8.87,-28.53,-29.23,0,*72
1500008831.91,47059,19.25,73872.3,8.89,-28.43,-29.07,0,*7A
1500008833.12,47060,19.19,73870.5,8.91,-28.47,-29.23,0,*7B
1500008834.35,47061,19.19,73870.3,8.91,-28.53,-29.35,0,*78
1500008835.6,47062,19.19,73868.3,8.91,-28.21,-29.01,0,*79
1500008836.85,47063,19.19,73870.5,8.93,-28.37,-29.01,0,*7D
1500008838.13,47064,19.19,73870.8,8.93,-29.01,-29.89,0,*7E
1500008839.38,47065,19.19,73870.5,8.93,-29.61,-30.61,0,*77
1500008840.63,47066,19.25,73872.3,8.93,-30.45,-31.11,0,*7C
1500008841.9,47067,19.19,73870.0,8.93,-29.35,-30.05,0,*76
1500008843.15,47068,19.19,73866.3,8.93,-28.15,-28.91,0,*7E
1500008844.4,47069,19.19,73866.8,8.95,-28.59,-29.39,0,*72
1500008845.62,47070,19.19,73864.5,8.97,-29.07,-29.95,0,*74
1500008846.87,47071,19.19,73866.3,8.93,-29.39,-30.27,0,*7D
1500008848.11,47072,19.19,73868.3,8.95,-28.43,-29.01,0,*78
1500008849.35,47073,19.19,73870.3,8.95,-28.09,-29.13,0,*74
1500008850.6,47074,19.19,73868.3,8.95,-29.13,-30.05,0,*76
1500008851.87,47075,19.19,73866.0,8.97,-28.25,-28.91,0,*75
1500008853.13,47076,19.19,73868.8,8.97,-28.43,-29.13,0,*7D
1500008854.4,47077,19.19,73870.5,8.97,-28.05,-28.75,0,*7F
1500008855.65,47078,19.19,73868.5,9.01,-28.37,-29.01,0,*7D
1500008856.9,47079,19.19,73870.0,9.01,-28.15,-28.91,0,*74
1500008858.12,47080,19.19,73868.3,9.03,-28.75,-29.61,0,*78
1500008859.37,47081,19.25,73872.3,9.01,-29.39,-30.11,0,*7D
1500008860.63,47082,19.19,73870.8,9.01,-28.91,-29.79,0,*7B
1500008861.84,47083,19.19,73872.5,9.03,-28.31,-29.13,0,*7E
1500008863.06,47084,19.19,73872.3,9.01,-27.89,-28.69,0,*7B
1500008864.25,47085,19.19,73870.8,9.03,-28.85,-29.79,0,*7B
1500008865.44,47086,19.19,73868.5,9.03,-28.31,-29.07,0,*7E
1500008866.63,47087,19.19,73870.0,9.03,-28.53,-29.23,0,*7D
1500008867.88,47088,19.19,73866.0,9.03,-29.17,-30.05,0,*7F
1500008869.11,47089,19.19,73866.8,9.03,-29.39,-30.27,0,*72
1500008870.33,47090,19.19,73866.8,9.03,-29.35,-30.27,0,*76
1500008871.56,47091,19.19,73864.0,9.05,-28.69,-29.57,0,*76
1500008872.78,47092,19.19,73868.0,9.03,-29.07,-30.05,0,*75
1500008874.05,47093,19.19,73868.8,9.05,-28.63,-29.35,0,*7A
1500008875.29,47094,19.19,73868.8,9.09,-28.43,-29.13,0,*77
1500008876.56,47095,19.19,73864.8,9.05,-28.25,-29.13,0,*7A
1500008877.8,47096,19.19,73866.3,9.09,-28.43,-29.29,0,*7C
1500008879.03,47097,19.19,73868.8,9.09,-27.77,-28.59,0,*73
1500008880.25,47098,19.19,73868.0,9.09,-27.71,-28.47,0,*75
1500008881.48,47099,19.19,73866.5,9.13,-28.09,-28.85,0,*71
1500008882.69,47100,19.19,73870.8,9.13,-28.53,-29.45,0,*72
1500008883.92,47101,19.19,73866.5,9.13,-28.59,-29.61,0,*7F
1500008885.15,47102,19.19,73866.5,9.13,-29.45,-30.51,0,*7B
1500008886.36,47103,19.19,73866.5,9.13,-29.45,-30.45,0,*7F
1500008887.59,47104,19.19,73868.0,9.13,-29.23,-30.39,0,*73
1500008888.84,47105,19.19,73870.3,9.13,-29.29,-30.39,0,*78
1500008890.09,47106,19.19,73864.0,9.11,-30.01,-31.17,0,*76
1500008891.35,47107,19.19,73870.5,9.13,-29.73,-30.61,0,*78
1500008892.58,47108,19.19,73872.3,9.13,-28.85,-29.73,0,*74
1500008893.82,47109,19.19,73874.0,9.11,-29.61,-30.67,0,*71
1500008895.07,47110,19.19,73874.0,9.11,-29.61,-30.55,0,*78
1500008896.33,47111,19.19,73872.8,9.11,-28.31,-29.51,0,*71
1500008897.58,47112,19.19,73872.3,9.11,-28.75,-29.83,0,*7D
1500008898.8,47113,19.19,73872.5,9.13,-31.45,-32.51,0,*70
1500008900.02,47114,19.19,73868.3,9.11,-31.17,-32.13,0,*74
1500008901.25,47115,19.19,73868.8,9.09,-30.73,-31.79,0,*70
1500008902.52,47116,19.19,73872.8,9.05,-29.89,-30.95,0,*71
1500008903.79,47117,19.19,73874.3,9.05,-29.29,-30.17,0,*70